sat.trackr.live / text

‹ back to catalog

STARLINK-37264

NORAD 68729 · 2026-082B

PAYLOAD ACTIVE UNKNOWN

§ Identity

Operator
Country
US
Launch date
2026-04-15
Launch site
AFWTR
Launch vehicle
Mass (kg)
RCS (m²)

Purposes: comms

External: N2YO · Heavens-Above · Gunter

§ Orbital elements

Epoch: 2026-05-25T04:00:03.998880Z

Period
92.34 min
Inclination
97.2852°
Eccentricity
0.0001851
Mean motion
15.59458601 rev/d
Perigee alt
388.0 km
Apogee alt
390.5 km
Semi-major
6,767.4 km
B*
-2.7181e-2
RAAN
8.7956°
Arg perigee
86.1935°
Mean anomaly
45.7283°
Rev number
588

§ Raw data

STARLINK-372641 68729U 26082B   26145.16671295 -.01900162  00000+0 -27181-1 0  99952 68729  97.2852   8.7956 0001851  86.1935  45.7283 15.59458601  5883

JSON: /api/v1/satellites/68729 · /tle

For live sub-satellite position, see the globe view (requires WebGL).

§ Visibility from observer

Set your observer location to see the next 7 days of passes ≥ 10°. The values pass through the URL so the page stays shareable.

No JS? Fill the form by hand. The geolocation button needs JavaScript.